Location: Middelsbur
(53.6609°N, 7.5020°E)
Time: 12:56:20
(UTC+00:00)

IRIDIUM 104 - Pass Details

Date: 06 July 2020
Orbit: 776 x 779 km, 86.4° (Epoch: 07 August)

Event Time Altitude Azimuth Distance (km) Brightness Sun altitude
Exits shadow 22:49:53 19° 169° (S) 1,783 5.5 -13.2°
Maximum altitude 22:53:37 68° 90° (E) 844 4.5 -13.3°
Drops below altitude 10° 22:58:49 10° 9° (N) 2,346 8.1 -13.4°
Sets 23:01:11 0° 7° (N) 3,278 9.2 -13.4°
